Regional Weather Roundup
Issued by NWS State College, PA

Home | Current Version | Previous Version | Text Only | Print | Product List | Glossary On
Versions: 1 2 3 4 5 6 7 8 9 10 11 12 13 14 15 16 17 18 19 20 21 22 23 24 25 26 27 28 29 30 31 32 33 34 35 36 37 38 39 40 41 42 43 44 45 46 47 48 49 50
000
ASUS41 KCTP 272010
RWRCTP

REGIONAL WEATHER ROUNDUP
NATIONAL WEATHER SERVICE STATE COLLEGE PA
300 PM EST FRI FEB 27 2015

Note: "fair" indicates few or no clouds below 12,000 feet with no
significant weather and/or obstructions to visibility.

* = STATION THAT DOES NOT REPORT PRECIPITATION /E.G. RAIN...SNOW...ETC/
    THUNDER OR FOG.

PAZ002>004-007>009-013>016-020>023-029>032-272100-
WESTERN PENNSYLVANIA

CITY           SKY/WX    TMP DP  RH WIND       PRES   REMARKS
ERIE           SUNNY     11  -1  58 W10G17    30.57R WCI  -3
MEADVILLE        N/A     10  -5  50 W6        30.48R WCI   0
FRANKLIN*      MOSUNNY   12  -4  48 NW6       30.47S WCI   3
NEW CASTLE     FAIR      13  -4  46 W7        30.54R WCI   3
BEAVER COUNTY  SUNNY     16  -4  41 W6        30.51R WCI   7
BUTLER*        SUNNY     14  -4  44 W8        30.52R WCI   3
PITTSBURGH INT MOSUNNY   16  -4  41 NW9       30.50R WCI   4
PITTSBURGH     MOSUNNY   19  -4  36 N9        30.48R WCI   8
INDIANA*       MOSUNNY   18   0  45 NW8G15    30.49R WCI   7
LATROBE        NOT AVBL
WASHINGTON CO* SUNNY     18   0  45 W5        30.52R WCI  11
$$

PAZ004>006-010>012-017>019-024>028-033>037-041-042-045-046-049>053-272100-
CENTRAL PENNSYLVANIA

CITY           SKY/WX    TMP DP  RH WIND       PRES   REMARKS
BRADFORD       SUNNY     12  -5  46 NW12      30.35R WCI  -2
DUBOIS         SUNNY     14  -1  51 W16       30.38R WCI  -2
CLEARFIELD     MIX PCPN  18   0  45 W10G20    30.40R WCI   6
JOHNSTOWN      PTSUNNY   13   2  61 W13       30.35R WCI  -2
ALTOONA        SUNNY     19   3  49 W12       30.40R WCI   7
STATE COLLEGE  MOSUNNY   21   1  42 NW17      30.40R WCI   7
WILLIAMSPORT   MOSUNNY   32   3  29 SW12      30.42R
SELINSGROVE    MOSUNNY   26   5  40 W9        30.45R
FT INDIANTOWN  SUNNY     25   3  39 NW9       30.44R
CAPITAL CITY   MOSUNNY   27   7  42 W13       30.45R
HARRISBURG     MOSUNNY   30  10  43 W13       30.45R
YORK           SUNNY     26   9  48 NW9       30.44R
$$

PAZ038>040-043-044-047-048-054-055-060>062-067>071-272100-
EASTERN PENNSYLVANIA

CITY           SKY/WX    TMP DP  RH WIND       PRES   REMARKS
SCRANTON       SUNNY     22   2  42 N14       30.38R WCI   9
MOUNT POCONO     N/A    N/A N/A N/A MISG      30.28R
ALLENTOWN      SUNNY     26   4  38 NW8       30.42R
QUAKERTOWN*    CLEAR     27   5  39 NW9       30.41R
READING        SUNNY     26   3  37 W10       30.43R
LANCASTER      SUNNY     24   5  44 NW12      30.44R WCI  13
COATESVILLE    CLEAR     27  10  50 NW15G21   30.41R WCI  15
POTTSTOWN      SUNNY     26   5  40 W9        30.44R
BLUE BELL      SUNNY     30   9  40 W10       30.41R
DOYLESTOWN     SUNNY     27   6  41 W12       30.40R
WILLOW GROVE   NOT AVBL
NORTH PHILA    SUNNY     30   6  36 NW13      30.44R
PHILADELPHIA   MOSUNNY   30   8  39 NW13G18   30.44R
$$


USA.gov is the U.S. government's official web portal to all federal, state and local government web resources and services.